Skip Page Navigation
NASA JPL Caltech
NASA Logo - Jet Propulsion Laboratory + View the NASA Portal
+ Center for Near-Earth Object Studies
JPL Home Earth Solar System Stars & Galaxies Technology
JPL Solar System Dynamics
BODIES ORBITS EPHEMERIDES TOOLS PHYSICAL DATA DISCOVERY FAQ SITE MAP
IMPORTANT: The SSD Announcement email list is now available. Major changes are coming in the near future, including possible hostname and/or URL changes. To be notified of such changes, subscribe to this email list.

Please visit this page for more details.


JPL Small-Body Database Browser
Search: [ help ]  
452705 (2005 YX92)
Classification: Main-belt Asteroid          SPK-ID: 2452705
Ephemeris | Orbit Diagram | Orbital Elements | Mission Design | Physical Parameters | Discovery Circumstances ]

[ show orbit diagram ]
Orbital Elements at Epoch 2458600.5 (2019-Apr-27.0) TDB
Reference: JPL 7 (heliocentric ecliptic J2000)
 Element Value Uncertainty (1-sigma)   Units 
e .1697661021185536 2.7022e-07  
a 2.313651378622817 4.7906e-08 au
q 1.920871802412803 6.6051e-07 au
i 2.991923535984049 1.5334e-05 deg
node 129.3104725096487 0.00027189 deg
peri 275.1848449338369 0.00030295 deg
M 330.5078988197889 0.00013175 deg
tp 2458705.804885746168
(2019-Aug-10.30488575)
0.00047333 TDB
period 1285.420751711571
3.52
3.9923e-05
1.093e-07
d
yr
n .2800639397805353 8.6984e-09 deg/d
Q 2.70643095483283 5.6039e-08 au
  Orbit Determination Parameters
   # obs. used (total)      41  
   data-arc span      6662 days (18.24 yr)  
   first obs. used      1998-12-28  
   last obs. used      2017-03-25  
   planetary ephem.      DE431  
   SB-pert. ephem.      SB431-N16  
   condition code      0  
   norm. resid. RMS      .66161  
   source      ORB  
   producer      Otto Matic  
   solution date      2017-Apr-09 10:47:19  

Additional Information
 Earth MOID = .932214 au 
 Jupiter MOID = 2.68122 au 
 T_jup = 3.561 
[ show covariance matrix ]

Ephemeris | Orbit Diagram | Orbital Elements | Mission Design | Physical Parameters | Discovery Circumstances ]

Physical Parameter Table
Parameter Symbol Value Units Sigma Reference Notes
absolute magnitude H 18.5   n/a MPO409069  

452705 (2005 YX92)          Discovered 2005-Dec-27 by Mt. Lemmon Survey at Mount Lemmon
Reference: Last Updated: 2016-01-04
Ephemeris | Orbit Diagram | Orbital Elements | Mission Design | Physical Parameters | Discovery Circumstances ]
ABOUT SSD CREDITS/AWARDS PRIVACY/COPYRIGHT GLOSSARY LINKS
FirstGov 2019-Dec-07 11:54 UT
(server date/time)  
NASA Home Page
Site Manager:   Ryan S. Park
Webmaster  Alan B. Chamberlin